Overview Statistics Trail Chart Weather Telemetry Raw packets
 

This is the latest recevied weather packets stored in our database for station/object DM8MH-13. If no packets are shown the sender has not sent any weather packets the latest 10 day(s).

<< 28 29 30 31 32 33 34 >>
Time Temp. Humidity Pressure Rain* Wind** Luminosity Snow
1788159071 17.22° C 90% 1011.9 hPa 0 mm - 268 W/m² -
1788158471 16.67° C 90% 1011.7 hPa 0 mm - 93 W/m² -
1788157871 16.67° C 90% 1011.6 hPa 0 mm - 71 W/m² -
1788157271 16.67° C 90% 1011.7 hPa 0 mm - 69 W/m² -
1788156671 16.11° C 90% 1011.7 hPa 0.25 mm - 54 W/m² -
1788156071 16.11° C 90% 1011.6 hPa 0.25 mm - 42 W/m² -
1788155472 16.11° C 89% 1011.6 hPa 0.51 mm - 39 W/m² -
1788154871 16.11° C 89% 1011.6 hPa 0.51 mm - 16 W/m² -
1788154271 16.11° C 89% 1011.5 hPa 0.51 mm - 25 W/m² -
1788153671 16.11° C 89% 1011.3 hPa 0.51 mm - 6 W/m² -
1788153071 16.11° C 88% 1011.1 hPa 0.51 mm - 0 W/m² -
1788152471 15.56° C 88% 1011.1 hPa 0.51 mm - 0 W/m² -
1788151871 15.56° C 88% 1011.2 hPa 0.51 mm - 0 W/m² -
1788151278 15.56° C 87% 1011.7 hPa 0.51 mm - 0 W/m² -
1788150671 15.56° C 87% 1011.7 hPa 0.51 mm - 0 W/m² -
1788150072 15.56° C 87% 1011.7 hPa 0.51 mm - 0 W/m² -
1788149471 15.56° C 87% 1011.6 hPa 0.51 mm - 0 W/m² -
1788148872 15.56° C 87% 1011.6 hPa 0.51 mm - 0 W/m² -
1788148272 15.56° C 87% 1011.6 hPa 0.51 mm - 0 W/m² -
1788147673 15.56° C 86% 1011.7 hPa 0.25 mm - 0 W/m² -
1788147071 15.56° C 85% 1011.7 hPa 0 mm - 0 W/m² -
1788146471 15.56° C 84% 1011.4 hPa 0 mm - 0 W/m² -
1788145870 15.56° C 83% 1011.3 hPa 0 mm - 0 W/m² -
1788145271 15.56° C 83% 1011.2 hPa 0 mm - 0 W/m² -
1788144672 15.56° C 83% 1011.4 hPa 0 mm - 0 W/m² -

* Rain latest hour (hover to see other rain measurements)
** Current wind speed in m/s (hover to see current wind gust speed)